This is the latest recevied weather packets stored in our database for station/object KU9TRY. If no packets are shown the sender has not sent any weather packets the latest 1 day(s).
| Time | Temp. | Humidity | Pressure | Rain* | Wind** | Luminosity | Snow |
|---|---|---|---|---|---|---|---|
| 1778056418 | 22.22° C | 64% | 1007.5 hPa | 0 mm | - | 0 W/m² | - |
| 1778054903 | 21.11° C | 62% | 1007.1 hPa | 0 mm | - | 0 W/m² | - |
| 1778054298 | 21.11° C | 62% | 1007.3 hPa | 0 mm | - | 0 W/m² | - |
| 1778053995 | 20.56° C | 64% | 1007.4 hPa | 0 mm | - | 0 W/m² | - |
| 1778053692 | 21.11° C | 63% | 1007.4 hPa | 0 mm | - | 0 W/m² | - |
| 1778053389 | 21.11° C | 63% | 1007.3 hPa | 0 mm | - | 0 W/m² | - |
| 1778053086 | 21.67° C | 60% | 1007.2 hPa | 0 mm | - | 0 W/m² | - |
| 1778052784 | 21.67° C | 59% | 1007.2 hPa | 0 mm | - | 0 W/m² | - |
| 1778052178 | 21.67° C | 57% | 1007.3 hPa | 0 mm | - | 0 W/m² | - |
| 1778051574 | 21.67° C | 57% | 1007.3 hPa | 0 mm | - | 0 W/m² | - |
| 1778050665 | 22.22° C | 57% | 1007.4 hPa | 0 mm | - | 0 W/m² | - |
| 1778049754 | 22.22° C | 56% | 1007.6 hPa | 0 mm | - | 0 W/m² | - |
| 1778049452 | 22.22° C | 56% | 1007.6 hPa | 0 mm | - | 0 W/m² | - |
| 1778049149 | 22.22° C | 56% | 1007.7 hPa | 0 mm | - | 0 W/m² | - |
| 1778048848 | 22.22° C | 56% | 1007.8 hPa | 0 mm | - | 0 W/m² | - |
| 1778047938 | 22.22° C | 55% | 1008.1 hPa | 0 mm | - | 0 W/m² | - |
| 1778047333 | 22.22° C | 55% | 1008.3 hPa | 0 mm | - | 0 W/m² | - |
| 1778047030 | 22.22° C | 55% | 1008.4 hPa | 0 mm | - | 0 W/m² | - |
| 1778046727 | 22.22° C | 56% | 1008.3 hPa | 0 mm | - | 0 W/m² | - |
| 1778046424 | 22.22° C | 55% | 1008.4 hPa | 0 mm | - | 0 W/m² | - |
| 1778046119 | 22.22° C | 56% | 1008.4 hPa | 0 mm | - | 0 W/m² | - |
| 1778045516 | 22.22° C | 56% | 1008.6 hPa | 0 mm | - | 0 W/m² | - |
| 1778045214 | 22.22° C | 54% | 1008.5 hPa | 0 mm | - | 0 W/m² | - |
| 1778044912 | 22.22° C | 54% | 1008.6 hPa | 0 mm | - | 0 W/m² | - |
| 1778044609 | 22.22° C | 54% | 1008.6 hPa | 0 mm | - | 0 W/m² | - |
* Rain latest hour (hover to see other rain measurements)
** Current wind speed in m/s (hover to see current wind gust speed)